Location: Seattle
(47.6064°N, 122.3308°W)
Time: 00:00:32
(UTC-08:00)

Envisat - Pass Details

Date: 01 November 2020
Orbit: 764 x 766 km, 98.1° (Epoch: 03 December)

Event Time Altitude Azimuth Distance (km) Brightness Sun altitude
Rises 05:53:16 0° 17° (NNE) 3,244 6.3 -10.7°
Reaches altitude 10° 05:55:38 10° 22° (NNE) 2,313 5.6 -10.3°
Maximum altitude 06:00:38 55° 100° (E) 915 3.9 -9.5°
Drops below altitude 10° 06:05:36 10° 178° (S) 2,295 5.7 -8.7°
Sets 06:07:57 0° 183° (S) 3,216 6.4 -8.3°
